Home > Weather > Dresden > Past weeks

Flag for Germany Weather for the Past 2 Weeks in Dresden, Saxony, Germany

Now
55 °F

Scattered clouds.


Feels Like: 55 °F
Forecast: 42 / 55 °F
Wind: 2 mph from North

Location: Dresden-Klotzsche

Current Time: May 3, 2016 at 10:48:56 AM

Latest Report: May 3, 2016 at 10:20 AM


Visibility: N/A

Pressure: 30.04 "Hg

Humidity: 67%

Dew Point: 45 °F

Location of DresdenLocation

Historic Weather in Dresden — Graph

°F

Dresden Temperature Yesterday

Maximum temperature yesterday: 59 °F (at 12:20 PM)
Minimum temperature yesterday: 41 °F (at 6:50 AM)
Average temperature yesterday: 52 °F

High & Low Weather Summary for the Past Weeks

 TemperatureHumidityPressure
High64 °F (Apr 30, 3:20 PM)100% (May 3, 4:20 AM)30.39 "Hg (May 3, 4:20 AM)
Low32 °F (Apr 24, 6:20 AM)25% (Apr 30, 2:20 PM)29.47 "Hg (Apr 26, 7:50 AM)
Average45 °F64%29.99 "Hg
* Reported Apr 18 9:20 AM — May 3 9:20 AM, Dresden, Weather by CustomWeather, © 2016

Note: Actual official high and low records may vary slightly from our data, if they occured in-between our weather recording intervals... More about our weather records

Advertising

Dresden Weather History for the Previous 24 Hours

Scroll right to see more
 ConditionsComfort  
Time TempWeatherWind HumidityBarometerVisibility
9:20 AM
Tue, May 3
50 °FPartly sunny.2 mph76%30.04 "HgN/A
8:50 AM50 °FPartly sunny.1 mph76%30.04 "HgN/A
8:20 AM48 °FPartly sunny.5 mph82%30.04 "HgN/A
7:20 AM43 °FPartly sunny.2 mph93%30.04 "HgN/A
6:50 AM41 °FPartly sunny.2 mph93%30.04 "HgN/A
6:20 AM39 °FClear.3 mph93%30.04 "Hg10 mi
5:50 AM39 °FClear.3 mph93%30.04 "Hg10 mi
5:20 AM39 °FClear.3 mph93%30.04 "Hg10 mi
4:50 AM39 °FClear.2 mph93%30.07 "Hg10 mi
4:20 AM39 °FClear.2 mph100%30.07 "Hg10 mi
3:50 AM39 °FClear.2 mph93%30.07 "Hg10 mi
3:20 AM39 °FClear.2 mph93%30.07 "Hg10 mi
2:20 AM43 °FClear.2 mph87%30.09 "Hg10 mi
1:50 AM46 °FClear.2 mph82%30.09 "Hg10 mi
1:20 AM45 °FClear.2 mph87%30.09 "Hg10 mi
12:50 AM46 °FClear.2 mph82%30.09 "Hg10 mi
12:20 AM46 °FClear.1 mph76%30.12 "Hg10 mi
11:50 PM
Mon, May 2
50 °FClear.3 mph71%30.12 "Hg10 mi
11:20 PM50 °FClear.1 mph71%30.12 "Hg10 mi
10:50 PM50 °FClear.2 mph71%30.12 "Hg10 mi
10:20 PM52 °FClear.1 mph67%30.12 "Hg10 mi
9:50 PM52 °FClear.1 mph67%30.12 "Hg10 mi
9:20 PM54 °FSunny.2 mph63%30.12 "Hg10 mi
8:50 PM55 °FPassing clouds.5 mph59%30.12 "HgN/A
8:20 PM55 °FPartly sunny.5 mph59%30.12 "HgN/A
7:50 PM57 °FSunny.8 mph55%30.12 "Hg10 mi
7:20 PM59 °FPassing clouds.5 mph51%30.12 "HgN/A
6:50 PM57 °FSunny.8 mph55%30.15 "Hg10 mi
6:20 PM59 °FBroken clouds.9 mph48%30.15 "HgN/A
5:50 PM59 °FPassing clouds.8 mph48%30.15 "HgN/A
5:20 PM59 °FPartly sunny.7 mph51%30.15 "HgN/A
4:50 PM59 °FPartly sunny.9 mph48%30.15 "HgN/A
4:20 PM59 °FPartly sunny.12 mph48%30.18 "HgN/A
3:50 PM59 °FPartly sunny.8 mph48%30.18 "HgN/A
3:20 PM59 °FPartly sunny.10 mph48%30.18 "HgN/A
2:50 PM59 °FPartly sunny.10 mph48%30.18 "HgN/A
2:20 PM59 °FPartly sunny.9 mph48%30.18 "HgN/A
1:50 PM59 °FPartly sunny.9 mph48%30.21 "HgN/A
1:20 PM59 °FPartly sunny.12 mph51%30.21 "HgN/A
12:50 PM57 °FPartly sunny.12 mph51%30.21 "HgN/A
12:20 PM59 °FPartly sunny.10 mph51%30.21 "HgN/A
11:50 AM55 °FPartly sunny.9 mph59%30.21 "HgN/A
11:20 AM57 °FPartly sunny.10 mph55%30.21 "HgN/A
10:50 AM57 °FPartly sunny.10 mph55%30.21 "HgN/A
10:20 AM55 °FScattered clouds.12 mph55%30.21 "HgN/A
Weather by CustomWeather, © 2016

See weather overviewHow to use our weather pages